Regional Weather Roundup
Issued by NWS

Home | Current Version | Previous Version | Text Only | Print | Product List | Glossary Off
Versions: 1 2 3 4 5 6 7 8 9 10 11 12 13 14 15 16 17 18 19 20 21 22 23 24 25 26 27 28 29 30 31 32 33 34 35 36 37 38 39 40 41 42 43 44 45 46 47 48 49 50

927
ASUS44 KJAN 260603
RWRMS

MISSISSIPPI HOURLY WEATHER ROUNDUP
NATIONAL WEATHER SERVICE JACKSON MS
100 AM CDT SAT JUL 26 2014

NOTE: "FAIR: INDICATES FEW OR NO CLOUDS BELOW 12,000 FEET WITH NO
SIGNIFICANT WEATHER AND/OR OBSTRUCTIONS TO VISIBILITY.

MSZ001>002-007>008-010>013-018>021-025>028-034>036-260700-
NORTHWEST MISSISSIPPI

CITY           SKY/WX    TMP DP  RH WIND       PRES   REMARKS
CLARKSDALE     FAIR      72  70  94 CALM      30.00F
CLEVELAND      FAIR      72  70  95 S3        29.99F
GREENWOOD      CLEAR     68  67  96 CALM      30.00S
6HR MIN TEMP:  68; 6HR MAX TEMP:  84;

GREENVILLE     CLEAR     72  69  90 S3        29.99S
6HR MIN TEMP:  72; 6HR MAX TEMP:  85;

GRENADA        FAIR      64  64 100 CALM      30.01S
OLIVE BRANCH   CLEAR     70  70 100 CALM      30.01S
OXFORD         FAIR      66  64  94 CALM      30.03S
TUNICA         PTCLDY    70  66  88 S5        30.00S
$$

MSZ003>006-009-014>017-022>024-029>033-037>039-260700-
NORTHEAST MISSISSIPPI

CITY           SKY/WX    TMP DP  RH WIND       PRES   REMARKS
BELMONT        FAIR      67  66  98 CALM      30.03S
COLUMBUS AFB   CLEAR     65  65 100 CALM      30.02S
6HR MIN TEMP:  65; 6HR MAX TEMP:  83;

CORINTH        FAIR      66  64  94 CALM      30.01S FOG
GOLDN TRIANGLE CLEAR     68  63  83 CALM      30.03R
STARKVILLE     FAIR      63  63 100 CALM      30.02S
TUPELO         CLEAR     70  66  87 CALM      30.01S
6HR MIN TEMP:  70; 6HR MAX TEMP:  83;

$$

MSZ040-058-260700-
CENTRAL MISSISSIPPI

CITY           SKY/WX    TMP DP  RH WIND       PRES   REMARKS
JACKSON INTL   CLEAR     73  71  93 CALM      30.02S
6HR MIN TEMP:  73; 6HR MAX TEMP:  87;

JACKSON HAWKNS CLEAR     76  70  82 CALM      30.02F
6HR MIN TEMP:  75; 6HR MAX TEMP:  87;

MERIDIAN KEY   CLEAR     71  69  93 S3        30.01F
6HR MIN TEMP:  71; 6HR MAX TEMP:  85; 6HR PCP:  0.01;

MERIDIAN NAS   CLEAR     73  70  90 CALM      30.02S
6HR MIN TEMP:  71; 6HR MAX TEMP:  85;

RAYMOND        FAIR      73  68  83 CALM      30.02S HAZE
VICKSBURG      CLEAR     72  69  90 CALM      30.00S FOG
6HR MIN TEMP:  71; 6HR MAX TEMP:  85;

$$

MSZ059>079-260700-
SOUTH MISSISSIPPI

CITY           SKY/WX    TMP DP  RH WIND       PRES   REMARKS
BROOKHAVEN     FAIR      75  73  94 CALM      30.05S
COLUMBIA       FAIR      73  73 100 CALM      30.02S FOG
HATTIESBURG    CLEAR     78  74  87 CALM      30.03S
6HR MIN TEMP:  78; 6HR MAX TEMP:  90;

MCCOMB         CLEAR     77  74  90 S3        30.03S
6HR MIN TEMP:  77; 6HR MAX TEMP:  88;

NATCHEZ        CLEAR     77  73  88 S5        30.02S
6HR MIN TEMP:  77; 6HR MAX TEMP:  86;

PINE BELT      CLEAR     75  72  88 SW3       30.04S
6HR MIN TEMP:  75; 6HR MAX TEMP:  88;

$$

MSZ080>082-260700-
COASTAL MISSISSIPPI

CITY           SKY/WX    TMP DP  RH WIND       PRES   REMARKS
BILOXI         MOCLDY    80  77  91 SW5       30.02R
6HR MIN TEMP:  78; 6HR MAX TEMP:  83;

PASCAGOULA     MOCLDY    77  75  93 CALM      30.02S
6HR MIN TEMP:  77; 6HR MAX TEMP:  83;

GULFPORT       MOCLDY    80  75  84 CALM      30.01F
6HR MIN TEMP:  80; 6HR MAX TEMP:  85;

$$



USA.gov is the U.S. government's official web portal to all federal, state and local government web resources and services.